Home   Weather   Bengaluru   Past weeks

Flag for India Past Weather in Bengaluru, Karnataka, India — Yesterday and Last 2 Weeks

Now
84 °F

Passing clouds.


Feels Like: 83 °F
Forecast: 70 / 92 °F
Wind: No wind

Location: Bangalore / Hindustan

Current Time: Apr 26, 2017 at 11:39:16 pm

Latest Report: Apr 26, 2017 at 10:30 pm


Visibility: 4 mi

Pressure: 29.98 "Hg (27.15 "Hg at 876m altitude)

Humidity: 37%

Dew Point: 55 °F

Location of BengaluruLocation

Past Weather in Bengaluru — Graph

°F

Bengaluru Temperature Yesterday

Maximum temperature yesterday: 95 °F (at 1:30 pm)
Minimum temperature yesterday: 73 °F (at 11:30 pm)
Average temperature yesterday: 85 °F

High & Low Weather Summary for the Past Weeks

 TemperatureHumidityPressure
High97 °F (Apr 12, 3:00 pm)94% (Apr 23, 5:30 am)30.04 "Hg (Apr 23, 5:30 am)
Low72 °F (Apr 14, 6:30 am)14% (Apr 13, 4:30 pm)29.77 "Hg (Apr 15, 4:30 pm)
Average85 °F51%29.92 "Hg
* Reported Apr 11 9:30 pm — Apr 26 9:30 pm, Bengaluru, Weather by CustomWeather, © 2017

Note: Actual official high and low records may vary slightly from our data, if they occured in-between our weather recording intervals... More about our weather records

Advertising

Bengaluru Weather History for the Previous 24 Hours

Scroll right to see more
 ConditionsComfort  
Time TempWeatherWind HumidityBarometerVisibility
9:30 pm
Wed, Apr 26
84 °FPassing clouds.No wind45%29.98 "Hg5 mi
8:30 pm86 °FPassing clouds.No wind43%29.95 "Hg5 mi
7:30 pm86 °FClear.No wind33%29.92 "Hg10 mi
6:30 pm90 °FPassing clouds.5 mph29%29.89 "HgN/A
5:30 pm91 °FPassing clouds.8 mph26%29.89 "HgN/A
5:00 pm95 °FPassing clouds.8 mph25%29.89 "HgN/A
4:30 pm95 °FScattered clouds.6 mph25%29.89 "HgN/A
4:00 pm95 °FScattered clouds.7 mph28%29.89 "HgN/A
3:30 pm95 °FScattered clouds.7 mph30%29.89 "HgN/A
3:00 pm95 °FScattered clouds.7 mph28%29.89 "HgN/A
2:30 pm95 °FScattered clouds.7 mph30%29.92 "HgN/A
2:00 pm95 °FScattered clouds.7 mph28%29.92 "HgN/A
1:30 pm93 °FPassing clouds.9 mph32%29.92 "HgN/A
1:00 pm93 °FPassing clouds.7 mph32%29.95 "HgN/A
12:30 pm91 °FPassing clouds.7 mph34%29.98 "HgN/A
12:00 pm91 °FSunny.7 mph36%29.98 "Hg10 mi
11:30 am90 °FSunny.7 mph38%29.98 "Hg10 mi
11:00 am88 °FSunny.7 mph43%29.98 "Hg10 mi
10:30 am88 °FSunny.9 mph43%30.01 "Hg10 mi
10:00 am88 °FSunny.9 mph43%30.01 "Hg10 mi
9:30 am84 °FSunny.7 mph48%30.01 "Hg10 mi
9:00 am82 °FClear.6 mph51%30.01 "Hg5 mi
8:30 am79 °FClear.6 mph61%30.01 "Hg5 mi
8:00 am77 °FClear.5 mph65%29.98 "Hg5 mi
7:30 am75 °FClear.5 mph69%29.98 "Hg5 mi
7:00 am73 °FClear.No wind69%29.95 "Hg5 mi
6:30 am72 °FPassing clouds.3 mph73%29.95 "Hg5 mi
6:00 am73 °FPassing clouds.5 mph69%29.92 "Hg5 mi
5:30 am73 °FPassing clouds.3 mph69%29.92 "Hg5 mi
11:30 pm
Tue, Apr 25
73 °FLight rain. Passing clouds.6 mph74%29.98 "Hg5 mi
Weather by CustomWeather, © 2017

See weather overviewHow to use our weather pages